Content
SEND FEEDBACK

Daily
Averages
Monthly
Summary
United States of America

UMATAC, GUAM


Home > North America > United States > Guam
Elevation: 58 meters     Latitude: 13 17N     Longitude: 144 40E

WEATHER
 
SELECT A DAY
Number of Records: 341,524;   Date Range: 1/1/95 - 7/7/14
 
SHARE

PRINT THIS DATA

[ ← Previous Day ]
WEATHER ALMANAC - 20 APRIL, 2013
[ Next Day → ]
[ °F ]   °C
Weather ElementAverageHighLow
Temperature26.2 °C29 °C (3:55 pm)24.6 °C (3:55 am)
Dewpoint23.2 °C24 °C (1:23 am)21.6 °C (3:55 pm)
Humidity83.7 %94 % (7:56 am)64 % (3:55 pm)
Barometer1011.2 hPa1012.5 hPa (8:55 am)1009.1 hPa (2:55 pm)
Wind Speed13.4 km/h22.2 km/h (1:55 pm)
Wind Gust31.5 km/h (7:49 am)
Weather ElementAverage
Visibility13.5 km
Wind DirectionESE (98.2 °)

Weather ElementTotal
Precipitation5.08 mm
Cooling Degree Days8.5 (Base 18.3)
Growing Degree Days16.8 (Base 10)
Averaged from 55 records on 20 April, 2013
WEATHER CONDITIONS BREAKOUT
WIND DIRECTION BREAKOUT
WEATHER BY HOUR - 20 APRIL, 2013
[ °F ]   °C
Local TimeTemperatureDewpointHumidityBarometerVisibilityWind DirectionWind SpeedGust SpeedPrecipitationEventsConditions
12:22 AM26 °C23 °C83 %1011.5 hPa16.1 kmESE (110°)13 km/hMostly Cloudy
12:32 AM26 °C23 °C83 %1011.2 hPa16.1 kmESE (110°)13 km/hMostly Cloudy
12:35 AM26 °C23 °C83 %1011.2 hPa16.1 kmESE (110°)11.1 km/hMostly Cloudy
12:55 AM26 °C23.1 °C84 %1011.2 hPa16.1 kmESE (110°)11.1 km/hScattered Clouds
1:23 AM26 °C24 °C89 %1011.2 hPa16.1 kmEast (100°)9.3 km/hMostly Cloudy
1:26 AM26 °C24 °C89 %1011.2 hPa16.1 kmEast (100°)13 km/hMostly Cloudy
1:55 AM25.9 °C23.3 °C85 %1010.8 hPa16.1 kmEast (100°)13 km/hScattered Clouds
2:04 AM26 °C24 °C89 %1010.8 hPa16.1 kmEast (90°)13 km/hMostly Cloudy
2:23 AM26 °C23 °C83 %1010.8 hPa16.1 kmEast (90°)16.7 km/hRainLight Rain
2:29 AM25 °C23 °C89 %1010.8 hPa6.4 kmEast (90°)16.7 km/hRainHeavy Rain
2:34 AM25 °C23 °C89 %1010.8 hPa4.8 kmEast (80°)14.8 km/hRainLight Rain
2:50 AM25 °C23 °C89 %1010.5 hPa16.1 kmESE (110°)11.1 km/hMostly Cloudy
2:55 AM24.7 °C23 °C90 %1010.5 hPa16.1 kmESE (120°)11.1 km/h1.27 mmMostly Cloudy
3:55 AM24.6 °C23.1 °C91 %1010.5 hPa16.1 kmSSE (150°)14.8 km/hClear
4:55 AM24.6 °C22.5 °C88 %1010.8 hPa16.1 kmSSE (150°)11.1 km/hMostly Cloudy
5:34 AM25 °C23 °C89 %1010.8 hPa16.1 kmESE (120°)9.3 km/hOvercast
5:37 AM25 °C23 °C89 %1010.8 hPa16.1 kmESE (110°)9.3 km/hOvercast
5:55 AM25.2 °C23.5 °C90 %1010.8 hPa16.1 kmESE (110°)9.3 km/hOvercast
6:55 AM25.7 °C23.1 °C85 %1011.5 hPa16.1 kmSSE (150°)9.3 km/hMostly Cloudy
7:49 AM26 °C23 °C83 %1012.2 hPa3.2 kmSouth (170°)20.4 km/h31.5 km/hHaze
7:50 AM26 °C23 °C83 %1012.2 hPa2.4 kmSouth (180°)16.7 km/h31.5 km/hRainHeavy Rain
7:52 AM26 °C23 °C83 %1012.2 hPa1.9 kmSSE (160°)18.5 km/h31.5 km/hRainHeavy Rain
7:55 AM25.3 °C23.6 °C90 %1012.2 hPa1.9 kmSSE (150°)13 km/h31.5 km/h3.56 mmRainHeavy Rain
7:56 AM25 °C24 °C94 %1012.2 hPa1.9 kmSE (140°)14.8 km/h31.5 km/hRainRain
7:57 AM25 °C24 °C94 %1012.2 hPa1.9 kmSE (130°)16.7 km/h31.5 km/hRainLight Rain
7:58 AM25 °C24 °C94 %1012.2 hPa2.4 kmSE (130°)18.5 km/h31.5 km/hRainLight Rain
7:59 AM26 °C24 °C89 %1012.2 hPa4 kmSE (130°)18.5 km/hRainLight Rain
8:00 AM26 °C24 °C89 %1012.2 hPa4.8 kmESE (120°)20.4 km/hRainLight Rain
8:05 AM26 °C24 °C89 %1012.2 hPa14.5 kmESE (120°)20.4 km/hMostly Cloudy
8:55 AM27.4 °C23 °C77 %1012.5 hPa16.1 kmSE (130°)11.1 km/h0.25 mmMostly Cloudy
9:11 AM28 °C23 °C74 %1012.5 hPa16.1 kmESE (120°)9.3 km/hLight Drizzle
9:21 AM28 °C22 °C70 %1012.5 hPa16.1 kmESE (120°)11.1 km/hScattered Clouds
9:55 AM28.4 °C21.8 °C67 %1012.5 hPa16.1 kmESE (120°)11.1 km/h0 mmMostly Cloudy
10:55 AM28.6 °C22.7 °C70 %1012.2 hPa16.1 kmEast (90°)14.8 km/hMostly Cloudy
11:55 AM28.7 °C23.7 °C74 %1011.5 hPa16.1 kmESE (110°)14.8 km/hMostly Cloudy
12:55 PM28.9 °C22.4 °C68 %1010.5 hPa16.1 kmEast (100°)11.1 km/hMostly Cloudy
1:55 PM28.2 °C23.6 °C76 %1009.8 hPa16.1 kmESE (110°)22.2 km/hClear
2:55 PM28.6 °C22.2 °C68 %1009.1 hPa16.1 kmEast (90°)13 km/hPartly Cloudy
3:55 PM29 °C21.6 °C64 %1009.1 hPa16.1 kmEast (80°)14.8 km/hScattered Clouds
4:55 PM27.4 °C22.7 °C75 %1009.5 hPa16.1 kmEast (90°)14.8 km/hMostly Cloudy
5:55 PM27 °C22.9 °C78 %1009.5 hPa16.1 kmEast (100°)13 km/hMostly Cloudy
6:55 PM26.1 °C22.5 °C80 %1010.2 hPa16.1 kmENE (70°)11.1 km/hOvercast
7:55 PM25.9 °C23 °C84 %1010.8 hPa16.1 kmENE (60°)14.8 km/hClear
8:55 PM26.3 °C23.4 °C84 %1011.5 hPa16.1 kmNNE (30°)11.1 km/hScattered Clouds
9:02 PM26 °C24 °C89 %1011.5 hPa16.1 kmNorth (10°)11.1 km/hMostly Cloudy
9:03 PM26 °C24 °C89 %1011.5 hPa16.1 kmNorth (10°)9.3 km/hMostly Cloudy
9:14 PM26 °C24 °C89 %1011.5 hPa16.1 kmNNE (20°)9.3 km/hMostly Cloudy
9:28 PM26 °C24 °C89 %1011.9 hPa16.1 kmNorth (10°)7.4 km/hMostly Cloudy
9:42 PM26 °C24 °C89 %1011.9 hPa16.1 kmNNE (20°)5.6 km/hMostly Cloudy
9:55 PM25.9 °C24 °C89 %1011.9 hPa16.1 kmNNE (30°)9.3 km/hMostly Cloudy
9:59 PM26 °C23 °C83 %1011.9 hPa16.1 kmENE (60°)13 km/hMostly Cloudy
10:03 PM26 °C23 °C83 %1011.9 hPa16.1 kmENE (60°)13 km/hMostly Cloudy
10:27 PM26 °C23 °C83 %1012.2 hPa16.1 kmEast (80°)18.5 km/hMostly Cloudy
10:55 PM25.7 °C22.7 °C83 %1012.2 hPa16.1 kmENE (60°)14.8 km/hClear
11:55 PM25.8 °C22.8 °C83 %1011.5 hPa16.1 kmEast (80°)13 km/hPartly Cloudy
Hourly data recorded from PGUA, located 0 kilometers away from Umatac, Guam







STORIES FROM OUR PARTNERS